Regional Weather Roundup
Issued by NWS Newport/Morehead, NC

Current Version | Previous Version | Text Only | Print | Product List | Glossary On
Versions: 1 2 3 4 5 6 7 8 9 10 11 12 13 14 15 16 17 18 19 20 21 22 23 24 25 26 27 28 29 30 31 32 33 34 35 36 37 38 39 40 41 42 43 44 45 46 47 48 49 50
000
ASUS42 KMHX 180822
RWRMHX
WEATHER ROUNDUP FOR EASTERN NORTH CAROLINA
NATIONAL WEATHER SERVICE NEWPORT/MOREHEAD CITY NC
400 AM EDT FRI APR 18 2014

NOTE: "FAIR" INDICATES FEW OR NO CLOUDS BELOW 12,000 FEET
WITH NO SIGNIFICANT WEATHER AND/OR OBSTRUCTIONS TO VISIBILITY

NCZ015>017-031-032-045>047-102-103-180900-
NORTH COAST

CITY           SKY/WX    TMP DP  RH WIND       PRES   REMARKS
EDENTON        MOCLDY    43  39  86 N6        30.41F
ELIZABETH CITY CLOUDY    45  40  82 N12       30.42F
KITTY HAWK     CLOUDY    46  44  92 N10G20    30.38S
MANTEO         CLOUDY    46  44  93 NE16G25   30.39S

$$

NCZ045>047-081-094-103-104-180900-
CENTRAL COAST

CITY           SKY/WX    TMP DP  RH WIND       PRES   REMARKS
FRISCO         CLOUDY    49  47  93 N15G24    30.35S
SWANQUARTER      N/A     46 N/A N/A NE13G22   30.36S

$$

NCZ095-097-098-100-101-180900-
SOUTHERN COAST

CITY           SKY/WX    TMP DP  RH WIND       PRES   REMARKS
BEAUFORT       MOCLDY    48  44  86 N16       30.36R
CEDAR ISLAND     N/A     52 N/A N/A N20G25    30.41S
JACKSONVILLE   CLOUDY    44  42  93 N12       30.38S
NEWPORT          N/A     45  43  93 N8          N/A
PINEY ISLAND   CLOUDY    50  46  86 N14       30.37S
WILMINGTON     CLEAR     46  40  79 N12       30.36F


$$

NCZ011>013-027>030-043-044-078>080-089-090>093-098-180900-
COASTAL PLAIN

CITY           SKY/WX    TMP DP  RH WIND       PRES   REMARKS
AHOSKIE        PTCLDY    39  36  86 CALM      30.44S
CLINTON        CLOUDY    45  40  85 NE8       30.40F
ELIZABETHTOWN  CLEAR     45  39  81 CALM      30.37F
GOLDSBORO      MOCLDY    42  40  95 NE6       30.41R
GREENVILLE     PTCLDY    41  37  87 CALM      30.42S
HAVELOCK       PTCLDY    46  41  82 N14       30.39S
KENANSVILLE    PTCLDY    42  39  89 N7        30.41F
KINSTON        MOCLDY    41  39  91 N5        30.42S
NEW BERN       PTCLDY    45  41  87 N9        30.40F
RICHLANDS      MOCLDY    43  27  52 N8        30.39F
ROANOKE RAPIDS NOT AVBL
ROCKY MOUNT      N/A    N/A N/A N/A MISG      30.44S
WASHINGTON     CLEAR     43  38  84 N5        30.41S
WHITEVILLE     MOCLDY    47  40  74 NE8       30.36S

$$

AMZ130-135-150-152-154-156-158-170-250-252-270-ANZ085-086-088-633-658-670-180900-
MARINE OBSERVATIONS

STATION/POSITION TIME  TEMP    WIND        PRES    WAVE   SWELL
                       AIR SEA DIR/SP/G            HT/PER HT/PER
                 (UTC) (F)     (DEG/KT/KT) (MB)    (FT/S) (FT/S)
CHESAPEAKE LIGHT 0800   43      20/ 18/ 20 1030.3
BUOY 44014       0800   49 49   20/ 17/ 21 1028.1   10/11   8/11
DUCK             0800   45 51   10/ 17/ 22 1027.9
2E DUCK          0800      51                N/A     8/10   3/12
OREGON INLET     0800   46 51  350/ 17/ 20 1028.3
BUOY 44095       0800      48                N/A    10/10   5/11
HATTERAS CG      0800   51 56   10/ 12/ 24 1027.8
DIAMOND BUOY     NOT AVBL
CAPE LOOKOUT     0800   50      10/ 15/ 19 1027.4
BEAUFORT LAB     0800   49 59   10/ 15/ 18 1027.3
30 SE NEW RIVER  0800   54 62   30/ 23/ 27 1027.3    7/10   3/10
5 SE WRIGHTSVILL 0800   50 59   30/ 17/ 21 1027.3
FRYING PAN BUOY  0800   58 63   40/ 21/ 27 1025.4    8/ 6   3/ 9
BUOY 41001       NOT AVBL
BUOY 41002       NOT AVBL
BUOY 41004       NOT AVBL

$$



USA.gov is the U.S. government's official web portal to all federal, state and local government web resources and services.